This demonstration page uses our WeatherBlox Daily Observations layout. Learn more.

Left ArrowRight Arrow

34.16533, -84.80231

Hourly Observations for February 26, 2015

Temp ( °F °C ) Dew Point ( °F °C ) Humidity (%) Winds ( mph kmh ) Pressure ( in mb ) Visibility ( mi km ) Precip ( " mm )
12:08 am 00:08 Cloudy with Light Snow 31 -0.6 29 -1.7 92 92 N 8 13 29.83 1010 2 3 0.00 0.03
12:17 am 00:17 Cloudy with Light Snow 31 -0.6 29 -1.7 92 92 N 7 11 29.83 1010 2 3 0.01 0.25
12:29 am 00:29 Cloudy with Light Snow 31 -0.6 29 -1.7 92 92 N 7 11 29.80 1009 3 4 0.01 0.25
12:37 am 00:37 Cloudy with Light Snow 31 -0.6 28 -2.2 89 89 N 7 11 29.80 1009 3 5 0.01 0.25
12:53 am 00:53 Cloudy with Light Snow 31 -0.6 28 -2.2 89 89 N 7 11 29.73 1007 4 6 0.01 0.25
1:53 am 01:53 Cloudy with Mist and Fog 31 -0.6 28 -2.2 89 89 VRB 3 6 29.75 1008 6 10 0.00 0.03
2:53 am 02:53 Cloudy 31 -0.6 29 -1.7 92 92 VRB 3 6 29.77 1008 7 11 0.00 0.00
3:53 am 03:53 Cloudy with Mist and Fog 31 -0.6 29 -1.7 92 92 Calm 29.77 1008 6 10 0.00 0.00
4:53 am 04:53 Cloudy 31 -0.6 28 -2.2 89 89 Calm 29.80 1009 7 11 0.00 0.00
5:10 am 05:10 Cloudy with Mist and Fog 31 -0.6 29 -1.7 92 92 Calm 29.85 1011 6 10 0.00 0.00
5:32 am 05:32 Cloudy with Mist and Fog 30 -1.1 28 -2.2 92 92 Calm 29.85 1011 6 10 0.00 0.00
5:53 am 05:53 Cloudy with Mist and Fog 31 -0.6 28 -2.2 89 89 Calm 29.82 1010 5 8 0.00 0.00
6:53 am 06:53 Cloudy with Mist and Fog 29 -1.7 27 -2.8 92 92 Calm 29.85 1011 5 8 0.00 0.00
7:28 am 07:28 Cloudy with Mist and Fog 29 -1.7 28 -2.2 96 96 Calm 29.91 1013 4 6 0.00 0.00
7:43 am 07:43 Cloudy with Mist and Fog 30 -1.1 28 -2.2 92 92 Calm 29.94 1014 4 6 0.00 0.00
7:53 am 07:53 Cloudy with Mist and Fog 30 -1.1 28 -2.2 92 92 Calm 29.88 1012 5 8 0.00 0.00
8:53 am 08:53 Cloudy with Mist and Fog 31 -0.6 28 -2.2 89 89 Calm 29.92 1013 6 10 0.00 0.00
9:06 am 09:06 Cloudy with Mist and Fog 31 -0.6 29 -1.7 92 92 Calm 29.97 1015 6 10 0.00 0.00
9:22 am 09:22 Mostly Cloudy 33 0.6 29 -1.7 85 85 NNW 3 6 29.97 1015 8 13 0.00 0.00
9:33 am 09:33 Partly Cloudy 32 0 29 -1.7 88 88 Calm 29.97 1015 8 13 0.00 0.00
9:53 am 09:53 Mostly Sunny 34 1.1 29 -1.7 82 82 Calm 29.93 1014 9 14 0.00 0.00
10:23 am 10:23 Mostly Cloudy 34 1.1 30 -1.1 85 85 Calm 30.00 1016 10 16 0.00 0.00
10:53 am 10:53 Cloudy 35 1.7 30 -1.1 82 82 Calm 29.95 1014 10 16 0.00 0.00
11:19 am 11:19 Cloudy 36 2.2 30 -1.1 79 79 Calm 30.03 1017 10 16 0.00 0.00
11:53 am 11:53 Cloudy 36 2.2 31 -0.6 82 82 VRB 3 6 29.98 1015 10 16 0.00 0.00
12:53 pm 12:53 Cloudy 36 2.2 31 -0.6 82 82 Calm 29.98 1015 10 16 0.00 0.00
1:53 pm 13:53 Cloudy 37 2.8 30 -1.1 76 76 VRB 6 9 29.99 1016 10 16 0.00 0.00
2:53 pm 14:53 Cloudy 37 2.8 30 -1.1 76 76 undefined N/A 30.01 1016 10 16 0.00 0.00
3:53 pm 15:53 Cloudy 37 2.8 29 -1.7 73 73 NNW 5 7 30.03 1017 10 16 0.00 0.00
4:53 pm 16:53 Cloudy 38 3.3 30 -1.1 73 73 Calm 30.05 1018 10 16 0.00 0.00
5:53 pm 17:53 Cloudy 37 2.8 31 -0.6 79 79 Calm 30.08 1019 10 16 0.00 0.00
6:53 pm 18:53 Cloudy 36 2.2 30 -1.1 79 79 Calm 30.11 1020 10 16 0.00 0.00
7:11 pm 19:11 Cloudy 36 2.2 31 -0.6 82 82 Calm 30.15 1021 10 16 0.00 0.00
7:53 pm 19:53 Cloudy 35 1.7 31 -0.6 85 85 Calm 30.14 1021 10 16 0.00 0.00
8:53 pm 20:53 Mostly Cloudy 33 0.6 30 -1.1 89 89 Calm 30.16 1021 9 14 0.00 0.00
9:53 pm 21:53 Clear 32 0 29 -1.7 88 88 Calm 30.17 1022 8 13 0.00 0.00
10:53 pm 22:53 Clear with Mist and Fog 31 -0.6 28 -2.2 89 89 Calm 30.19 1022 6 10 0.00 0.00
11:53 pm 23:53 Clear with Mist and Fog 30 -1.1 27 -2.8 88 88 Calm 30.21 1023 4 6 0.00 0.00

Powered by AerisWeather